IQ5QD-13 Weather Reports


Display with metric or nautical units.
time (UTC)temp
F
wind
direction
speed
MPH
gust
MPH
rain 1hr
in
rain 24hr
in
rain mn
in
humidity
%
barometer
mb
20260506224058 56 143 0.0 1.0 0.01 0.60 0.01 88 1008.8
20260506223018 56 105 2.0 3.0 0.00 0.59 0.00 88 1008.8
20260506222040 56 148 0.0 1.0 0.01 0.60 0.00 87 1008.7
20260506221017 57 0.0 0.0 0.01 0.60 0.00 86 1008.6
20260506220038 57 151 0.0 1.0 0.01 0.60 0.00 85 1008.6
20260506215105 57 130 2.0 3.0 0.01 0.60 0.60 85 1008.5
20260506214024 58 146 1.0 2.0 0.01 0.60 0.60 85 1008.5
20260506213046 58 159 2.0 2.0 0.01 0.60 0.60 86 1008.6
20260506212023 58 168 1.0 3.0 0.01 0.60 0.59 85 1008.4
20260506211050 58 149 1.0 2.0 0.01 0.60 0.59 86 1008.3
20260506210022 59 125 2.0 3.0 0.01 0.60 0.59 86 1008.3
20260506205040 59 131 2.0 3.0 0.01 0.60 0.59 85 1008.3
20260506204113 59 127 3.0 4.0 0.01 0.61 0.59 88 1008.1
20260506203056 59 0.0 0.0 0.02 0.61 0.59 87 1008.1
20260506202154 59 0.0 0.0 0.01 0.60 0.58 87 1008.1
20260506201034 60 0.0 0.0 0.01 0.61 0.58 86 1008.0
20260506200119 60 154 0.0 1.0 0.01 0.61 0.58 85 1007.9
20260506195033 60 167 0.0 2.0 0.02 0.61 0.58 84 1007.7
20260506194058 60 156 2.0 3.0 0.02 0.62 0.58 84 1007.5
20260506193059 60 163 1.0 1.0 0.01 0.61 0.57 83 1007.5
20260506192024 61 155 2.0 3.0 0.01 0.61 0.57 83 1007.3
20260506191041 61 169 2.0 4.0 0.02 0.62 0.57 82 1007.0
20260506190025 61 181 1.0 3.0 0.02 0.62 0.57 82 1006.8
20260506185108 62 169 2.0 4.0 0.01 0.62 0.56 81 1006.8
20260506184113 62 151 3.0 4.0 0.02 0.62 0.56 81 1006.7
20260506183037 62 141 4.0 6.0 0.02 0.62 0.56 81 1006.7
20260506182114 62 158 3.0 4.0 0.02 0.63 0.56 81 1006.7
20260506181033 62 136 4.0 6.0 0.01 0.62 0.55 80 1006.6
20260506180059 62 169 3.0 4.0 0.02 0.63 0.55 79 1006.5
20260506175018 63 194 2.0 4.0 0.02 0.63 0.55 77 1006.3
20260506174039 63 155 3.0 7.0 0.01 0.63 0.54 75 1006.4
20260506173017 64 150 4.0 6.0 0.02 0.63 0.54 74 1006.3
20260506172040 64 193 2.0 3.0 0.02 0.63 0.54 73 1006.2
20260506171018 64 187 2.0 6.0 0.02 0.63 0.54 73 1006.1
20260506170039 64 232 2.0 4.0 0.02 0.62 0.53 72 1006.3
20260506165018 65 207 5.0 7.0 0.02 0.62 0.53 70 1006.2
20260506164039 66 227 4.0 7.0 0.02 0.62 0.53 69 1006.3
20260506163106 66 204 4.0 10.0 0.02 0.62 0.52 70 1006.3
20260506162035 67 233 4.0 10.0 0.02 0.62 0.52 68 1006.3
20260506161106 67 195 4.0 7.0 0.02 0.62 0.52 66 1006.2
20260506160035 67 238 4.0 8.0 0.02 0.61 0.51 65 1006.1
20260506155105 67 211 6.0 10.0 0.02 0.62 0.51 64 1006.2
20260506154037 67 196 4.0 10.0 0.03 0.62 0.51 66 1006.0
20260506153018 67 223 6.0 10.0 0.02 0.61 0.50 69 1006.0
20260506152045 67 268 4.0 9.0 0.03 0.62 0.50 73 1006.0
20260506151106 67 232 5.0 8.0 0.03 0.62 0.50 74 1006.1
20260506150026 68 231 5.0 11.0 0.03 0.62 0.49 77 1006.0
20260506145036 68 211 5.0 10.0 0.03 0.62 0.49 78 1006.0
20260506144114 68 188 3.0 7.0 0.03 0.62 0.48 80 1005.9
20260506143041 66 219 5.0 10.0 0.03 0.62 0.48 82 1005.8
20260506142023 65 227 5.0 10.0 0.03 0.62 0.47 84 1005.8
20260506141107 66 229 7.0 13.0 0.03 0.62 0.47 83 1005.7
20260506140113 65 241 5.0 8.0 0.03 0.62 0.46 86 1005.9
20260506135035 66 144 4.0 7.0 0.03 0.63 0.46 88 1005.8
20260506134114 64 225 3.0 7.0 0.02 0.63 0.45 89 1006.0
20260506133033 62 303 1.0 3.0 0.03 0.64 0.45 89 1006.0
20260506132058 60 187 1.0 2.0 0.02 0.64 0.44 88 1006.3
20260506131052 59 238 2.0 3.0 0.03 0.65 0.44 88 1006.4
20260506130058 59 234 4.0 11.0 0.02 0.65 0.43 86 1006.5
20260506125039 57 206 1.0 3.0 0.03 0.66 0.43 86 1006.7
20260506124114 59 241 4.0 8.0 0.03 0.68 0.43 81 1006.5
20260506123031 62 185 7.0 15.0 0.03 0.68 0.42 80 1006.4
20260506122118 64 253 4.0 7.0 0.03 0.69 0.42 84 1006.2
20260506121019 63 155 2.0 4.0 0.03 0.70 0.41 84 1006.2
20260506120043 66 136 7.0 14.0 0.03 0.71 0.41 80 1006.0
20260506115019 69 158 6.0 11.0 0.03 0.72 0.40 77 1005.8
20260506114038 71 164 8.0 13.0 0.04 0.74 0.40 74 1005.8
20260506113018 70 131 7.0 14.0 0.03 0.75 0.39 75 1005.7
20260506112047 70 201 6.0 13.0 0.04 0.76 0.39 74 1005.8
20260506111106 69 132 7.0 15.0 0.03 0.77 0.38 75 1005.8
20260506110043 68 150 9.0 21.0 0.04 0.79 0.38 76 1005.9
20260506105050 68 146 9.0 18.0 0.03 0.79 0.37 76 1006.0
20260506104114 68 171 4.0 13.0 0.03 0.80 0.36 78 1006.3
20260506103033 69 169 7.0 16.0 0.03 0.81 0.36 75 1006.1
20260506102042 68 144 5.0 10.0 0.03 0.81 0.35 77 1006.1
20260506101106 68 132 8.0 17.0 0.03 0.82 0.35 76 1006.1
20260506100035 67 142 11.0 17.0 0.03 0.82 0.34 76 1006.0
20260506095106 67 149 9.0 15.0 0.03 0.84 0.34 78 1006.0
20260506094024 66 141 9.0 14.0 0.03 0.84 0.33 78 1006.0
20260506093111 66 143 11.0 16.0 0.03 0.85 0.33 79 1006.0
20260506092104 66 144 8.0 15.0 0.02 0.85 0.32 81 1005.9
20260506091051 64 129 7.0 11.0 0.03 0.86 0.32 83 1006.0
20260506090114 64 143 7.0 10.0 0.02 0.87 0.31 83 1006.0
20260506085036 64 137 8.0 14.0 0.03 0.88 0.31 83 1005.9
20260506084114 63 146 7.0 13.0 0.02 0.88 0.30 84 1005.9
20260506083035 62 148 5.0 7.0 0.03 0.89 0.30 87 1006.0
20260506082115 61 175 1.0 2.0 0.03 0.90 0.30 88 1006.1
20260506081034 61 144 2.0 6.0 0.03 0.91 0.29 89 1006.1
20260506073019 61 120 1.0 3.0 0.02 0.98 0.27 93 1006.0
20260506072106 60 119 0.0 1.0 0.03 0.99 0.27 93 1006.0
20260506071018 59 0.0 0.0 0.02 0.98 0.26 93 1005.9
20260506062115 59 0.0 0.0 0.03 1.01 0.24 93 1005.8
20260506061035 58 128 0.0 1.0 0.03 1.03 0.24 93 1005.9
20260506051050 58 0.0 0.0 0.03 1.21 0.21 93 1005.8
20260506050114 58 224 0.0 1.0 0.02 1.25 0.20 93 1005.8
20260506045053 58 282 1.0 2.0 0.03 1.30 0.20 93 1005.7
20260506044118 58 111 1.0 2.0 0.03 1.35 0.20 93 1005.8
20260506043019 57 236 2.0 3.0 0.03 1.39 0.19 93 1005.7
20260506042042 57 234 1.0 3.0 0.03 1.44 0.19 93 1005.5
20260506041106 57 172 1.0 2.0 0.03 1.49 0.18 93 1005.6
20260506040025 57 47 2.0 3.0 0.03 1.55 0.18 93 1005.6
20260506035110 57 75 1.0 3.0 0.03 1.60 0.17 93 1005.8
20260506034116 57 41 1.0 2.0 0.03 1.63 0.17 93 1006.1
20260506033033 57 15 1.0 2.0 0.03 1.63 0.16 93 1006.0
20260506032100 57 255 0.0 2.0 0.03 1.64 0.16 93 1006.3
20260506031039 57 353 4.0 7.0 0.03 1.64 0.15 93 1006.5
20260506030103 57 244 3.0 6.0 0.04 1.64 0.15 93 1006.7
20260506025040 57 77 1.0 2.0 0.03 1.63 0.14 93 1006.2
20260506024058 57 61 0.0 1.0 0.03 1.64 0.14 93 1006.5
20260506023033 57 97 0.0 1.0 0.03 1.64 0.13 93 1006.6
20260506022058 56 89 2.0 4.0 0.04 1.64 0.13 92 1006.8
20260506021018 56 110 1.0 3.0 0.03 1.64 0.12 92 1006.3
20260506015107 56 103 1.0 2.0 0.03 1.64 0.11 92 1006.5
20260506014029 56 23 1.0 2.0 0.04 1.66 0.11 92 1006.4
20260506013055 56 313 1.0 2.0 0.04 1.68 0.10 92 1006.8
20260506012114 56 258 2.0 2.0 0.03 1.70 0.09 92 1007.2
20260506010531 56 301 2.0 4.0 0.04 1.72 0.09 92 1007.0
20260506005555 56 39 0.0 1.0 0.04 1.74 0.08 92 1006.9
20260506004534 56 6 0.0 1.0 0.03 1.76 0.07 92 1007.1
20260506003555 56 97 1.0 3.0 0.04 1.79 0.07 92 1007.1
20260506002619 56 328 2.0 2.0 0.03 1.80 0.06 92 1007.4
20260506001540 56 24 2.0 4.0 0.03 1.81 0.05 92 1007.4
20260506000619 56 210 2.0 4.0 0.03 1.83 0.05 92 1007.4
20260505235537 57 60 1.0 2.0 0.03 1.86 0.04 92 1007.5
20260505234618 57 215 0.0 1.0 0.03 1.87 0.04 92 1007.6
20260505233536 57 102 2.0 4.0 0.02 1.86 0.03 91 1007.4
20260505232605 58 92 1.0 2.0 0.02 1.86 0.03 92 1007.6
20260505231536 59 242 2.0 4.0 0.02 1.85 0.02 92 1007.8
20260505230603 60 261 3.0 8.0 0.02 1.85 0.02 91 1008.0
20260505230045 59 198 1.0 3.0 0.01 1.84 0.01 91 1008.0
20260505225019 60 153 1.0 2.0 0.01 1.84 0.01 90 1007.9